340  
ASUS43 KGRB 221411  
RWRGRB  
 
NORTH-CENTRAL AND NORTHEAST WISCONSIN REGIONAL WEATHER ROUNDUP  
NATIONAL WEATHER SERVICE GREEN BAY WI  
900 AM CDT TUE AUG 22 2017  
 
WIZ005-009-010>012-018-019-221500-  
NORTH CENTRAL WISCONSIN  
 
CITY SKY/WX TMP DP RH WIND PRES REMARKS
 
IRONWOOD CLOUDY 57 54 89 NW12 29.89R  
MANITOWISH WTR CLOUDY 59 58 94 NW10G17 29.88S  
ARBOR VITAE PTSUNNY 59 55 85 NW12G18 29.87F  
EAGLE RIVER MOSUNNY 60 51 71 NW10G23 29.85S  
LAND O LAKES MOSUNNY 59 54 83 NW12G17 29.86F  
RHINELANDER MOSUNNY 60 53 77 NW10G20 29.88R  
PHILLIPS CLOUDY 57 54 89 NW5 29.90S  
ANTIGO PTSUNNY 60 54 80 NW17G23 29.87S  
TOMAHAWK N/A 59 52 79 W9G16 29.89S  
MERRILL MOSUNNY 63 54 72 N12 29.89R  

 
 
WIZ013-073-221500-  
NORTHEAST WISCONSIN  
 
CITY SKY/WX TMP DP RH WIND PRES REMARKS
 
IRON MOUNTAIN PTSUNNY 62 53 72 NW13G22 29.80R  
MARINETTE SUNNY 66 54 65 NW9G18 29.79R  
OCONTO PTSUNNY 65 54 67 NW9G18 29.80R  

 
 
WIZ017-030-035>037-045-221500-  
CENTRAL WISCONSIN  
 
CITY SKY/WX TMP DP RH WIND PRES REMARKS
 
MEDFORD PTSUNNY 59 53 81 NW14G22 29.91R  
WAUSAU SUNNY 63 53 70 NW18G25 29.87R  
MOSINEE MOSUNNY 63 55 77 NW13G18 29.89R  
MARSHFIELD MOSUNNY 64 54 69 NW12 29.90R  
WISC RAPIDS SUNNY 65 55 70 N16G24 29.90R  
STEVENS POINT MOSUNNY 62 54 73 NW9G21 29.88S  
WAUPACA MOSUNNY 68 55 62 NW16G23 29.86R  
SHAWANO PTSUNNY 67 55 63 N9G20 29.83R  
CLINTONVILLE PTSUNNY 64 52 63 NW9 29.84R  
WAUTOMA MOSUNNY 68 57 68 N15G21 29.87R  

 
 
WIZ038-039-048-051-221500-  
FOX VALLEY  
 
CITY SKY/WX TMP DP RH WIND PRES REMARKS
 
NWS GREEN BAY CLOUDY 66 59 78 NW21G29 29.81R  
APPLETON PTSUNNY 66 59 77 NW16G25 29.81R  
OSHKOSH PTSUNNY 70 63 78 W12 29.82R  
FOND DU LAC PTSUNNY 70 61 73 W15 29.83R  

 
 
WIZ022-050-052-221500-  
EAST CENTRAL WISCONSIN  
 
CITY SKY/WX TMP DP RH WIND PRES REMARKS
 
EPHRAIM CLOUDY 63 55 75 NW13G24 29.77R  
WASHINGTON ISL CLOUDY 63 55 76 N14G22 29.75S  
STURGEON BAY PTSUNNY 65 56 72 NW17 29.79R  
MANITOWOC N/A 71 62 73 W15 29.79  
SHEBOYGAN MOSUNNY 70 65 84 W14 29.81R  

 
 
LMZ563-521-522-541>543-221500-  
LAKESHORE  
 
STATION/POSITION TIME TEMP WIND PRES VSBY WAVE
 
AIR SEA DIR/SP/G HT/PER  
(UTC) (F) (DEG/KT/KT) (MB) (MI) (FT/S)  
SHEBOYGAN LKSHOR 1300 68 260/ 17/ 19 1008.2R  
KEWAUNEE LKSHORE 1342 70 310/ 9/ 13 1007.2R  
NORTHPORT PIER 1315 65 320/ 23/ 27 1007.5R  
N MID LAKE BUOY 1250 63 68 320/ 27/ 31 1005.7 3/ 4  
S GREEN BAY BUOY 1400 67 71 300/ 19/ 25 1008.9  
SISTER BAY LKSHO 1318 67 350/ 21/ 25 N/A  
MENOMINEE LKSHOR 1342 64 310/ 11/ 16 1008.3R  

 
 
 
CLICK HERE TO GO TO PREVIOUS BULLETINS.

The Nexlab WI Page Main Text Page